OSCAR 7 (AO-7) 1 07530U 74089B 26146.60953686 -.00000027 00000+0 12313-3 0 9997 2 07530 101.9907 159.6310 0012338 170.5672 304.8135 12.53697701357813 PHASE 3B (AO-10) 1 14129U 83058B 26146.51822513 .00000118 00000+0 00000+0 0 9995 2 14129 25.8989 223.1592 6018314 109.7054 321.9164 2.05869340295046 UOSAT 2 (UO-11) 1 14781U 84021B 26146.47400727 .00001071 00000+0 11473-3 0 9993 2 14781 97.8044 112.2943 0006094 253.2110 106.8440 14.90722179253892 LUSAT (LO-19) 1 20442U 90005G 26146.34431022 .00000130 00000+0 63268-4 0 9996 2 20442 98.8860 167.5471 0010426 270.3885 89.6104 14.34115498899262 EYESAT A (AO-27) 1 22825U 93061C 26146.46326925 .00000096 00000+0 53385-4 0 9996 2 22825 98.6888 213.8837 0008852 157.2317 202.9260 14.30935467703899 ITAMSAT (IO-26) 1 22826U 93061D 26146.44915554 .00000093 00000+0 51938-4 0 9996 2 22826 98.6834 213.7848 0009653 141.9491 218.2375 14.31361595704204 RADIO ROSTO (RS15) 1 23439U 94085A 26146.56453471 -.00000030 00000+0 35957-3 0 9996 2 23439 64.8187 338.1873 0155329 7.8594 352.4713 11.27583654293469 JAS-2 (FO-29) 1 24278U 96046B 26146.57401575 -.00000006 00000+0 28131-4 0 9996 2 24278 98.5262 358.4047 0350350 152.3898 209.6342 13.53273246470249 TECHSAT 1B (GO-32) 1 25397U 98043D 26146.57000060 .00000063 00000+0 47382-4 0 9993 2 25397 99.0063 138.7845 0000303 320.8520 39.2636 14.24423538448255 ISS (ZARYA) 1 25544U 98067A 26146.51869321 .00010776 00000+0 20062-3 0 9997 2 25544 51.6333 47.3708 0007418 100.2418 259.9408 15.49392600568395 PCSAT (NO-44) 1 26931U 01043C 26146.57702753 .00000134 00000+0 80962-4 0 9990 2 26931 67.0509 300.1646 0006179 263.8727 96.1671 14.31946600287357 SAUDISAT 1C (SO-50) 1 27607U 02058C 26146.57659473 .00000868 00000+0 11988-3 0 9993 2 27607 64.5512 195.8458 0075593 266.4290 92.8168 14.82993695261251 CUTE-1 (CO-55) 1 27844U 03031E 26146.54117916 .00000284 00000+0 14176-3 0 9990 2 27844 98.6739 155.3725 0008386 245.2734 114.7572 14.24320378188591 CUBESAT XI-IV (CO-57) 1 27848U 03031J 26146.44851153 .00000258 00000+0 13240-3 0 9993 2 27848 98.6770 155.0110 0008195 266.9409 93.0832 14.23607561188287 MOZHAETS 4 (RS22) 1 27939U 03042A 26146.62204564 .00000946 00000+0 15415-3 0 9994 2 27939 98.3474 330.3729 0010916 344.0170 103.0846 14.73422316212370 CUBESAT XI-V 1 28895U 05043F 26146.38752089 .00001378 00000+0 22484-3 0 9996 2 28895 98.2962 301.5556 0012771 274.9543 85.0206 14.72563294 98547 CUTE-1.7+APD II (CO-65) 1 32785U 08021C 26146.57013412 .00005347 00000+0 34010-3 0 9997 2 32785 97.8259 127.5443 0010591 100.7325 259.5096 15.09206096981931 SEEDS II (CO-66) 1 32791U 08021J 26146.52098063 .00017820 00000+0 58054-3 0 9997 2 32791 97.7519 143.3985 0004089 56.7341 303.4291 15.31892285983974 YUBILEINY (RS30) 1 32953U 08025A 26146.61082321 .00000055 00000+0 32506-3 0 9997 2 32953 82.5060 8.8630 0019797 1.5968 358.5172 12.43178513817015 KKS-1 (KISEKI) 1 33499U 09002H 26146.53205952 .00001273 00000+0 16320-3 0 9996 2 33499 98.1195 68.6318 0008141 11.4975 348.6422 14.83057115932981 SWISSCUBE 1 35932U 09051B 26146.20633817 .00001029 00000+0 21298-3 0 9992 2 35932 98.4052 53.7110 0005491 286.5287 73.5310 14.62432018885940 BEESAT-1 1 35933U 09051C 26146.27284503 .00000868 00000+0 18415-3 0 9991 2 35933 98.3981 53.4598 0004178 306.1005 53.9808 14.61678630885985 ITUPSAT1 1 35935U 09051E 26146.31308867 .00000788 00000+0 17277-3 0 9994 2 35935 98.4066 52.7156 0006539 315.2639 44.8033 14.60402167885541 XIWANG-1 (HOPE-1) 1 36122U 09072B 26146.58413277 -.00000227 00000+0 -47725-3 0 9998 2 36122 100.4013 100.7626 0006877 285.4655 74.5698 13.16438449790165 O/OREOS (USA 219) 1 37224U 10062C 26146.36330087 .00002173 00000+0 21124-3 0 9991 2 37224 71.9681 129.7694 0012493 111.0895 249.1613 14.93634056113387 JUGNU 1 37839U 11058B 26146.07142522 .00000415 00000+0 76869-4 0 9996 2 37839 19.9608 82.7812 0018597 191.6343 268.4740 14.13769379755895 SRMSAT 1 37841U 11058D 26146.15930402 .00000387 00000+0 66327-4 0 9996 2 37841 19.9702 192.8027 0011670 322.7286 67.7002 14.11570317754702 STRAND-1 1 39090U 13009E 26146.47316276 .00000293 00000+0 11310-3 0 9991 2 39090 98.3917 327.2429 0007521 300.2804 59.7638 14.37148531693947 ZACUBE-1 (TSHEPISOSAT) 1 39417U 13066B 26146.47656642 .00004936 00000+0 38501-3 0 9990 2 39417 97.8105 108.6954 0040296 324.7600 35.0961 15.01001717677470 GOMX-1 1 39430U 13066Q 26146.53144234 .00002597 00000+0 39389-3 0 9997 2 39430 97.6502 348.3608 0129474 146.4664 214.4825 14.69360344666734 CUBEBUG-2 (LO-74) 1 39440U 13066AA 26146.42527803 .00003899 00000+0 36281-3 0 9997 2 39440 97.8895 95.3166 0059562 99.2054 261.5909 14.93563405673743 FUNCUBE-1 (AO-73) 1 39444U 13066AE 26146.37789710 .00007681 00000+0 48114-3 0 9993 2 39444 97.8263 117.3746 0034406 278.6052 81.1279 15.09171917676375 UWE-3 1 39446U 13066AG 26146.42439788 .00005764 00000+0 49584-3 0 9990 2 39446 97.8684 102.3565 0050228 34.3354 326.1096 14.96810705674321 UNISAT-6 1 40012U 14033C 26146.41554644 .00003286 00000+0 35620-3 0 9997 2 40012 97.7852 299.5167 0046167 139.0620 221.4078 14.88097886642927 DUCHIFAT-1 1 40021U 14033M 26146.11734151 .00081710 00000+0 10023-2 0 9994 2 40021 98.0492 202.2564 0006080 155.4206 204.7339 15.60037395652302 QB50P1 1 40025U 14033R 26146.59623809 .00007888 00000+0 39280-3 0 9998 2 40025 98.0970 156.2344 0007147 306.1827 53.8744 15.17869960649751 LILACSAT-2 1 40908U 15049K 26146.59557280 .00017383 00000+0 30460-3 0 9997 2 40908 97.4675 182.6263 0006047 347.9972 12.1135 15.50632093592404 FOX-1A (AO-85) 1 40967U 15058D 26146.28409578 .00003586 00000+0 32467-3 0 9993 2 40967 64.7765 347.0458 0129462 65.2005 296.2509 14.90827143110303 CAS-2T & KS-1Q 1 41847U 16066G 26146.21481582 .00001409 00000+0 20668-3 0 9991 2 41847 98.3824 222.2008 0341759 196.0428 162.9725 14.44615824501620 RADFXSAT (FOX-1B) 1 43017U 17073E 26146.37659269 .00011834 00000+0 51636-3 0 9999 2 43017 97.4741 14.0420 0152958 44.4475 316.8911 15.12266190462091 DIWATA-2B 1 43678U 18084H 26146.62893762 .00002487 00000+0 20327-3 0 9998 2 43678 98.1141 341.9079 0011633 243.6853 116.3175 15.00332580412987 ES'HAIL 2 1 43700U 18090A 26146.06503223 .00000145 00000+0 00000+0 0 9990 2 43700 0.0234 110.8293 0001725 344.9615 197.0586 1.00273530 27451 FOX-1CLIFF (AO-95) 1 43770U 18099N 26146.11735393 .00012167 00000+0 47286-3 0 9995 2 43770 97.4402 206.4523 0010103 71.9633 288.2706 15.26154290409859 ITASAT 1 43786U 18099AE 26146.41343191 .00008035 00000+0 38911-3 0 9990 2 43786 97.4048 198.3628 0014165 72.4937 287.7844 15.18729804409602 JY1SAT (JO-97) 1 43803U 18099AX 26146.42887357 .00018540 00000+0 58578-3 0 9991 2 43803 97.4147 209.1987 0004979 5.2727 354.8566 15.32854524410292 UWE-4 1 43880U 18111E 26146.32958787 .00036519 00000+0 78364-3 0 9997 2 43880 97.5853 73.7373 0009699 55.9342 304.2825 15.44584152407401 TIANYAN 01 1 44881U 19093C 26146.63904716 .00001588 00000+0 18530-3 0 9993 2 44881 97.7534 219.3967 0014143 151.9538 208.2443 14.86480473348210 RS-44 & BREEZE-KM R/B 1 44909U 19096E 26146.58340987 .00000032 00000+0 84496-4 0 9993 2 44909 82.5225 354.0638 0217192 194.6280 164.8472 12.79748416299587 SALSAT 1 46495U 20068K 26146.55796392 .00008098 00000+0 28625-3 0 9999 2 46495 97.8852 148.3122 0010466 28.4463 331.7345 15.29430828312053 XW-3 (CAS-9) 1 50466U 21131B 26146.60391736 .00000626 00000+0 20708-3 0 9996 2 50466 98.4965 239.1121 0004685 148.7797 211.3671 14.41333973232005 GREENCUBE (IO-117) 1 53109U 22080E 26146.39520043 -.00000003 00000+0 00000+0 0 9997 2 53109 70.1432 305.8260 0008887 294.8257 65.1479 6.42583283 90663 UMKA 1 (RS40S) 1 57172U 23091G 26146.57667664 .00006470 00000+0 29838-3 0 9992 2 57172 97.5066 205.3600 0012741 187.7103 172.3939 15.20524884160724 CUBESX-HSE 3 (RS42S) 1 57178U 23091N 26146.60430623 .00013504 00000+0 45824-3 0 9994 2 57178 97.5107 211.9276 0011636 162.0223 198.1431 15.30575827161121 MONITOR-3 (RS58S) 1 57180U 23091Q 26146.58200700 .00011310 00000+0 42424-3 0 9991 2 57180 97.5099 209.8760 0012333 168.8769 191.2745 15.27331507160999 MONITOR-4 (RS57S) 1 57182U 23091S 26146.49687162 .00010551 00000+0 39485-3 0 9993 2 57182 97.5093 209.7602 0012296 169.3585 190.7916 15.27427700160983 MONITOR-2 (RS39S) 1 57184U 23091U 26146.57118097 .00005415 00000+0 26412-3 0 9999 2 57184 97.5088 204.9958 0011323 179.7545 180.3696 15.18672768160673 SVYATOBOR 1 (RS60S) 1 57187U 23091X 26146.55730504 .00009005 00000+0 35059-3 0 9999 2 57187 97.5104 210.2602 0010233 160.3841 199.7793 15.26181257161013 VIZARD-METEO (RS38S) 1 57189U 23091Z 26146.57938000 .00016788 00000+0 49226-3 0 9991 2 57189 97.5104 215.6428 0008679 141.7999 218.3860 15.35225127161375 POLYTECH-UNIVERSE 3 (R*) 1 57191U 23091AB 26146.53533443 .00004729 00000+0 22954-3 0 9993 2 57191 97.5063 204.4651 0015128 198.8959 161.1715 15.18869699160666 UTMN 2 (RS27S) 1 57203U 23091AP 26146.56847867 .00013053 00000+0 43180-3 0 9992 2 57203 97.5101 213.4985 0009231 148.2353 211.9447 15.31432857161235 KUZGTU 1 (RS47S) 1 57217U 23091AV 26146.57668013 .00011785 00000+0 41657-3 0 9999 2 57217 97.5080 210.8443 0011731 165.4474 194.7106 15.29279213161073 SONATE-2 1 59112U 24043Q 26146.36346097 .00038146 00000+0 52922-3 0 9992 2 59112 97.5508 295.4534 0005919 274.8660 85.1919 15.56938668124493 MESAT1 1 60209U 24125G 26146.58095420 .00052148 00000+0 62658-3 0 9992 2 60209 97.2331 3.6067 0008096 296.8051 63.2378 15.60679887106193 OOV-CUBE (TUBSAT-30) 1 60240U 24128F 26146.56260741 .00002890 00000+0 22630-3 0 9993 2 60240 61.9954 300.9704 0047395 129.0233 231.5093 15.02647181102864 COLIBRI-S (RS67S) 1 61746U 24199M 26146.59026133 .00021356 00000+0 42814-3 0 9995 2 61746 97.3031 20.2603 0008434 13.0887 347.0580 15.46696558134075 HORS 3 (RS81S) 1 61753U 24199U 26146.58494838 .00036219 00000+0 57393-3 0 9995 2 61753 97.3014 22.0182 0006603 23.3969 336.7584 15.53301114134200 HORS 4 (RS82S) 1 61754U 24199V 26146.60705600 .00044501 00000+0 60483-3 0 9998 2 61754 97.2966 23.1109 0005404 19.5339 340.6123 15.57462834134285 ARCTICSAT 1 (RS74S) 1 61762U 24199AD 26146.57817795 .00359926 50897-4 11193-2 0 9999 2 61762 97.2866 29.0443 0002564 160.4852 199.6520 15.91584081134661 SIT-2086 1 61764U 24199AF 26146.60140809 .00033664 00000+0 57094-3 0 9995 2 61764 97.2982 22.5850 0006338 0.6908 359.4352 15.51417532131086 HYPERVIEW 1G (RS66S) 1 61772U 24199AP 26146.62474734 .00104414 00000+0 85374-3 0 9997 2 61772 97.2925 25.3410 0004359 20.6571 339.4867 15.70222225131289 ALTAIR (RS65S) 1 61779U 24199AW 26146.62491345 .00009223 00000+0 25983-3 0 9993 2 61779 97.3063 16.1223 0013632 31.5424 328.6635 15.36571888133809 ASRTU-1 (AO-123) 1 61781U 24199AY 26146.59465353 .00007994 00000+0 23465-3 0 9998 2 61781 97.3035 15.4625 0014814 33.2749 326.9423 15.35310679130611 SAMSAT-IONOSPHERE (RS7*) 1 61784U 24199BB 26146.58864615 .00043719 00000+0 63759-3 0 9999 2 61784 97.2986 21.9968 0008553 17.2429 342.9114 15.55531226134209 RTU MIREA 1 (RS51S) 1 61785U 24199BC 26146.59358103 .00047781 00000+0 62357-3 0 9997 2 61785 97.2977 22.7298 0007969 14.7700 345.3788 15.58515383131108 TEVEL2-4 1 63213U 25052D 26146.26733952 .00020884 00000+0 64174-3 0 9991 2 63213 97.3933 42.6332 0003275 144.3919 215.7543 15.33723992 66754 TEVEL2-5 1 63214U 25052E 26146.61171091 .00017942 00000+0 55448-3 0 9996 2 63214 97.3932 42.9318 0003253 143.9929 216.1533 15.33573847 66805 TEVEL2-6 1 63215U 25052F 26146.62352098 .00017670 00000+0 54677-3 0 9997 2 63215 97.3935 42.9284 0003332 143.3104 216.8367 15.33536301 66804 TEVEL2-1 1 63217U 25052H 26146.18836924 .00020046 00000+0 62991-3 0 9994 2 63217 97.3908 42.1428 0002816 155.3668 204.7709 15.33021025 66721 TEVEL2-3 1 63218U 25052J 26146.51012067 .00018006 00000+0 56515-3 0 9994 2 63218 97.3910 42.4835 0002911 155.6466 204.4914 15.33080972 66771 TEVEL2-2 1 63219U 25052K 26146.51515679 .00018152 00000+0 57047-3 0 9995 2 63219 97.3909 42.4712 0002861 155.5643 204.5736 15.33037508 66774 TEVEL2-9 1 63237U 25052AD 26146.26897279 .00018269 00000+0 60920-3 0 9999 2 63237 97.3969 41.6467 0005144 200.6326 159.4708 15.31123197 66679 TEVEL2-7 1 63238U 25052AE 26146.24044482 .00018002 00000+0 60549-3 0 9990 2 63238 97.3970 41.5434 0005217 201.5728 158.5294 15.30847555 66661 TEVEL2-8 1 63239U 25052AF 26146.24846027 .00018048 00000+0 60735-3 0 9993 2 63239 97.3972 41.5290 0005208 201.7276 158.3745 15.30829769 66660 INNOSAT 16 (RS92S7) 1 64878U 25155C 26146.55032371 .00005975 00000+0 24082-3 0 9990 2 64878 97.4548 113.7532 0008511 260.5987 99.4289 15.25186031 77373 GEOSCAN 6 (RS92S6) 1 64879U 25155D 26146.59811242 .00010700 00000+0 37445-3 0 9996 2 64879 97.4540 115.0755 0005718 247.5463 112.5172 15.29679699 77467 GEOSCAN 1 (RS92S1) 1 64880U 25155E 26146.60871012 .00011048 00000+0 38000-3 0 9995 2 64880 97.4536 115.2159 0005602 247.2085 112.8564 15.30236305 77477 239ALFEROV (RS61S) 1 64881U 25155F 26146.60817094 .00014730 00000+0 47470-3 0 9998 2 64881 97.4538 115.7066 0005033 243.7760 116.2964 15.32272267 77506 GEOSCAN 2 (RS92S2) 1 64890U 25155Q 26146.60623066 .00011113 00000+0 37902-3 0 9993 2 64890 97.4535 115.3574 0005241 228.0999 131.9795 15.30511022 77480 GEOSCAN 5 (RS92S5) 1 64891U 25155R 26146.60166535 .00014631 00000+0 46695-3 0 9994 2 64891 97.4530 115.8293 0003862 251.2629 108.8194 15.32591575 77517 GEOSCAN 4 (RS92S4) 1 64892U 25155S 26146.58793317 .00015176 00000+0 48212-3 0 9998 2 64892 97.4533 115.8580 0003811 252.0371 108.0456 15.32730032 77513 GEOSCAN 3 (RS92S3) 1 64893U 25155T 26146.55037004 .00017981 00000+0 53874-3 0 9996 2 64893 97.4522 116.1898 0003529 250.1507 109.9356 15.34558368 77537 INNOSAT 3 (RS92S0) 1 64894U 25155U 26146.58793848 .00036075 00000+0 84241-3 0 9992 2 64894 97.4477 117.5948 0002039 229.9821 130.1248 15.42110430 77636 KNACKSAT-2 1 67683U 98067XZ 26146.42729549 .00046759 00000+0 61748-3 0 9990 2 67683 51.6302 43.7596 0011784 121.7639 238.4503 15.57815003 16886